Aominesanmaru No.58 — JI3551 — position and weather

sailwx.info

Track history (hours):
 
Tides and Currents Weather Stations Pressure Air Temp Water Temp Dewpoint Dewpoint Depression Visibility Wind Speed Wind Dir Waves Ship Positions

Aominesanmaru No.58

Last reported at 2017-Nov-25 05:29 UTC. Time now 2017-Nov-25 05:51 UTC.
Position N 35°29' E 139°44'.

Length 59 m.

Type: Ship (hazmat cat A). MMSI: 431006719.

Date/timePositionNaut miles runAvg speedWind from/ knotsBaromVisibWave heightAir tempDewpointWater temp
2017-Nov-25 05:29N 35°29' E 139°44'0 0.0
2017-Nov-25 04:59N 35°29' E 139°44'0 0.0
2017-Nov-25 04:29N 35°29' E 139°44'0 0.0
2017-Nov-25 03:59N 35°29' E 139°44'0 0.0
2017-Nov-25 03:23N 35°29' E 139°44'2 5.4
2017-Nov-25 03:00N 35°30' E 139°47'7 1.4
2017-Nov-24 22:25N 35°30' E 139°55'511.4
2017-Nov-24 22:00N 35°30' E 139°49'4 6.2
2017-Nov-24 21:25N 35°31' E 139°45'0 0.0
2017-Nov-24 20:55N 35°31' E 139°45'0 0.0
2017-Nov-24 20:28N 35°31' E 139°45'0 0.0
2017-Nov-24 20:01N 35°31' E 139°45'0 0.0
2017-Nov-24 19:31N 35°31' E 139°45'0 0.0
2017-Nov-24 18:58N 35°31' E 139°45'0 0.0
2017-Nov-24 18:28N 35°31' E 139°45'0 0.0
2017-Nov-24 18:01N 35°31' E 139°45'0 0.0
2017-Nov-24 17:25N 35°31' E 139°45'0 0.0
2017-Nov-24 16:55N 35°31' E 139°45'0 0.0
2017-Nov-24 16:25N 35°31' E 139°45'0 0.0
2017-Nov-24 15:58N 35°31' E 139°45'0 0.0
2017-Nov-24 15:28N 35°31' E 139°45'0 0.0
2017-Nov-24 15:01N 35°31' E 139°45'0 0.0
2017-Nov-24 14:31N 35°31' E 139°45'0 0.0
2017-Nov-24 14:01N 35°31' E 139°45'0 0.0
2017-Nov-24 13:28N 35°31' E 139°45'0 0.0
2017-Nov-24 13:01N 35°31' E 139°45'0 0.0
2017-Nov-24 12:31N 35°31' E 139°45'0 0.0
2017-Nov-24 11:58N 35°31' E 139°45'0 0.0
2017-Nov-24 11:28N 35°31' E 139°45'0 0.0
2017-Nov-24 10:58N 35°31' E 139°45'0 0.0
2017-Nov-24 10:31N 35°31' E 139°45'0 0.0
2017-Nov-24 09:58N 35°31' E 139°45'0 0.0
2017-Nov-24 09:28N 35°31' E 139°45'0 0.0
2017-Nov-24 09:01N 35°31' E 139°45'0 0.0
2017-Nov-24 08:28N 35°31' E 139°45'0 0.0
2017-Nov-24 07:58N 35°31' E 139°45'0 0.0
2017-Nov-24 07:28N 35°31' E 139°45'0 0.0
2017-Nov-24 06:58N 35°31' E 139°45'0 0.0
2017-Nov-24 06:22N 35°31' E 139°45'0 0.0
2017-Nov-24 05:58N 35°31' E 139°45'0 0.0
2017-Nov-24 05:25N 35°31' E 139°45'0 0.0
2017-Nov-24 04:58N 35°31' E 139°45'0 0.0
2017-Nov-24 04:28N 35°31' E 139°45'0 0.0
2017-Nov-24 03:55N 35°31' E 139°45'3 7.4
2017-Nov-24 03:31N 35°31' E 139°48'5 9.0
2017-Nov-24 03:00N 35°35' E 139°47'1 1.7
2017-Nov-24 02:28N 35°36' E 139°48'0 0.0
2017-Nov-24 01:58N 35°36' E 139°48'0 0.0
2017-Nov-24 01:28N 35°36' E 139°48'0 0.0
2017-Nov-24 00:58N 35°36' E 139°48'0 0.0
2017-Nov-24 00:28N 35°36' E 139°48'0 0.0
2017-Nov-23 23:58N 35°36' E 139°48'0 0.0
2017-Nov-23 23:28N 35°36' E 139°48'0 0.0
2017-Nov-23 23:00N 35°36' E 139°48'3 6.7
2017-Nov-23 22:30N 35°33' E 139°50'4 8.2
2017-Nov-23 21:59N 35°30' E 139°46'1 1.6
2017-Nov-23 21:13N 35°31' E 139°45'0 0.0
2017-Nov-23 20:43N 35°31' E 139°45'0 0.0
2017-Nov-23 20:19N 35°31' E 139°45'0 0.0
2017-Nov-23 19:13N 35°31' E 139°45'0 0.0
2017-Nov-23 18:43N 35°31' E 139°45'0 0.0
2017-Nov-23 18:13N 35°31' E 139°45'0 0.0
2017-Nov-23 17:55N 35°31' E 139°45'0 0.0
2017-Nov-23 17:25N 35°31' E 139°45'0 0.0
2017-Nov-23 16:25N 35°31' E 139°45'0 0.0
2017-Nov-23 11:43N 35°31' E 139°45'0 0.0
2017-Nov-23 11:25N 35°31' E 139°45'0 0.0
2017-Nov-23 10:55N 35°31' E 139°45'0 0.0
2017-Nov-23 10:07N 35°31' E 139°45'0 0.0
2017-Nov-23 09:43N 35°31' E 139°45'0 0.0
2017-Nov-23 09:25N 35°31' E 139°45'0 0.0
2017-Nov-23 08:55N 35°31' E 139°45'0 0.0
2017-Nov-23 05:49N 35°31' E 139°45'0 0.3
2017-Nov-23 05:30N 35°31' E 139°45'4 7.9
2017-Nov-23 05:00N 35°30' E 139°49'  
2017-Nov-19 20:56N 35°30' E 139°55'511.2
2017-Nov-19 20:30N 35°30' E 139°49'4 7.5
2017-Nov-19 19:59N 35°31' E 139°45'0 0.0
2017-Nov-19 19:29N 35°31' E 139°45'0 0.0
2017-Nov-19 18:59N 35°31' E 139°45'0 0.0
2017-Nov-19 18:29N 35°31' E 139°45'0 0.0
2017-Nov-19 17:59N 35°31' E 139°45'0 0.0
2017-Nov-19 17:29N 35°31' E 139°45'0 0.0
2017-Nov-19 16:59N 35°31' E 139°45'0 0.0
2017-Nov-19 16:29N 35°31' E 139°45'0 0.0
2017-Nov-19 15:59N 35°31' E 139°45'0 0.0
2017-Nov-19 15:23N 35°31' E 139°45'0 0.0
2017-Nov-19 14:59N 35°31' E 139°45'0 0.0
2017-Nov-19 14:29N 35°31' E 139°45'0 0.0
2017-Nov-19 13:59N 35°31' E 139°45'0 0.0
2017-Nov-19 13:29N 35°31' E 139°45'0 0.0
2017-Nov-19 12:59N 35°31' E 139°45'0 0.0
2017-Nov-19 12:29N 35°31' E 139°45'0 0.0
2017-Nov-19 11:50N 35°31' E 139°45'0 0.0
2017-Nov-19 11:29N 35°31' E 139°45'0 0.0
2017-Nov-19 10:53N 35°31' E 139°45'0 0.0
2017-Nov-19 10:29N 35°31' E 139°45'0 0.0
2017-Nov-19 09:56N 35°31' E 139°45'0 0.0
2017-Nov-19 09:29N 35°31' E 139°45'0 0.0
2017-Nov-19 08:50N 35°31' E 139°45'0 0.0
2017-Nov-19 08:23N 35°31' E 139°45'0 0.0
2017-Nov-19 07:47N 35°31' E 139°45'0 0.0
2017-Nov-19 07:29N 35°31' E 139°45'0 0.0
2017-Nov-19 06:59N 35°31' E 139°45'0 0.0
2017-Nov-19 06:23N 35°31' E 139°45'0 0.0
2017-Nov-19 05:59N 35°31' E 139°45'0 0.0
2017-Nov-19 05:29N 35°31' E 139°45'0 0.0
2017-Nov-19 04:59N 35°31' E 139°45'0 0.0
2017-Nov-19 04:23N 35°31' E 139°45'0 0.0
2017-Nov-19 03:56N 35°31' E 139°45'0 0.0
2017-Nov-19 03:23N 35°31' E 139°45'0 0.4
2017-Nov-19 03:00N 35°31' E 139°45'5 9.9
2017-Nov-19 02:30N 35°31' E 139°51'2 0.3
2017-Nov-18 21:08N 35°31' E 139°53'2 8.4
2017-Nov-18 20:51N 35°31' E 139°50'0 0.0
2017-Nov-18 04:00N 35°30' E 139°50'612.5
2017-Nov-18 03:29N 35°27' E 139°44'2 3.9
2017-Nov-18 03:00N 35°27' E 139°41'0 0.0
2017-Nov-18 02:21N 35°27' E 139°41'0 0.0
2017-Nov-18 01:51N 35°27' E 139°41'0 0.0
2017-Nov-18 01:24N 35°27' E 139°41'0 0.0
2017-Nov-18 00:15N 35°27' E 139°41'0 0.0
2017-Nov-17 23:45N 35°27' E 139°41'0 0.0
2017-Nov-17 23:30N 35°27' E 139°41'0 0.0
2017-Nov-17 22:54N 35°27' E 139°41'3 6.7
2017-Nov-17 22:27N 35°28' E 139°45'4 0.2
2017-Nov-16 21:02N 35°30' E 139°49'210.6
2017-Nov-16 20:49N 35°30' E 139°46'4 0.2
2017-Nov-15 22:25N 35°30' E 139°50'4 0.3
2017-Nov-15 06:39N 35°30' E 139°45'  
Track history (hours):
 
Tides and Currents Weather Stations Pressure Air Temp Water Temp Dewpoint Dewpoint Depression Visibility Wind Speed Wind Dir Waves Ship Positions

Aominesanmaru No.58

Last reported at 2017-Nov-25 05:29 UTC. Time now 2017-Nov-25 05:51 UTC.
Position N 35°29' E 139°44'.

Length 59 m.

Type: Ship (hazmat cat A). MMSI: 431006719.

Date/timePositionNaut miles runAvg speedWind from/ knotsBaromVisibWave heightAir tempDewpointWater temp
2017-Nov-25 05:29N 35°29' E 139°44'0 0.0
2017-Nov-25 04:59N 35°29' E 139°44'0 0.0
2017-Nov-25 04:29N 35°29' E 139°44'0 0.0
2017-Nov-25 03:59N 35°29' E 139°44'0 0.0
2017-Nov-25 03:23N 35°29' E 139°44'2 5.4
2017-Nov-25 03:00N 35°30' E 139°47'7 1.4
2017-Nov-24 22:25N 35°30' E 139°55'511.4
2017-Nov-24 22:00N 35°30' E 139°49'4 6.2
2017-Nov-24 21:25N 35°31' E 139°45'0 0.0
2017-Nov-24 20:55N 35°31' E 139°45'0 0.0
2017-Nov-24 20:28N 35°31' E 139°45'0 0.0
2017-Nov-24 20:01N 35°31' E 139°45'0 0.0
2017-Nov-24 19:31N 35°31' E 139°45'0 0.0
2017-Nov-24 18:58N 35°31' E 139°45'0 0.0
2017-Nov-24 18:28N 35°31' E 139°45'0 0.0
2017-Nov-24 18:01N 35°31' E 139°45'0 0.0
2017-Nov-24 17:25N 35°31' E 139°45'0 0.0
2017-Nov-24 16:55N 35°31' E 139°45'0 0.0
2017-Nov-24 16:25N 35°31' E 139°45'0 0.0
2017-Nov-24 15:58N 35°31' E 139°45'0 0.0
2017-Nov-24 15:28N 35°31' E 139°45'0 0.0
2017-Nov-24 15:01N 35°31' E 139°45'0 0.0
2017-Nov-24 14:31N 35°31' E 139°45'0 0.0
2017-Nov-24 14:01N 35°31' E 139°45'0 0.0
2017-Nov-24 13:28N 35°31' E 139°45'0 0.0
2017-Nov-24 13:01N 35°31' E 139°45'0 0.0
2017-Nov-24 12:31N 35°31' E 139°45'0 0.0
2017-Nov-24 11:58N 35°31' E 139°45'0 0.0
2017-Nov-24 11:28N 35°31' E 139°45'0 0.0
2017-Nov-24 10:58N 35°31' E 139°45'0 0.0
2017-Nov-24 10:31N 35°31' E 139°45'0 0.0
2017-Nov-24 09:58N 35°31' E 139°45'0 0.0
2017-Nov-24 09:28N 35°31' E 139°45'0 0.0
2017-Nov-24 09:01N 35°31' E 139°45'0 0.0
2017-Nov-24 08:28N 35°31' E 139°45'0 0.0
2017-Nov-24 07:58N 35°31' E 139°45'0 0.0
2017-Nov-24 07:28N 35°31' E 139°45'0 0.0
2017-Nov-24 06:58N 35°31' E 139°45'0 0.0
2017-Nov-24 06:22N 35°31' E 139°45'0 0.0
2017-Nov-24 05:58N 35°31' E 139°45'0 0.0
2017-Nov-24 05:25N 35°31' E 139°45'0 0.0
2017-Nov-24 04:58N 35°31' E 139°45'0 0.0
2017-Nov-24 04:28N 35°31' E 139°45'0 0.0
2017-Nov-24 03:55N 35°31' E 139°45'3 7.4
2017-Nov-24 03:31N 35°31' E 139°48'5 9.0
2017-Nov-24 03:00N 35°35' E 139°47'1 1.7
2017-Nov-24 02:28N 35°36' E 139°48'0 0.0
2017-Nov-24 01:58N 35°36' E 139°48'0 0.0
2017-Nov-24 01:28N 35°36' E 139°48'0 0.0
2017-Nov-24 00:58N 35°36' E 139°48'0 0.0
2017-Nov-24 00:28N 35°36' E 139°48'0 0.0
2017-Nov-23 23:58N 35°36' E 139°48'0 0.0
2017-Nov-23 23:28N 35°36' E 139°48'0 0.0
2017-Nov-23 23:00N 35°36' E 139°48'3 6.7
2017-Nov-23 22:30N 35°33' E 139°50'4 8.2
2017-Nov-23 21:59N 35°30' E 139°46'1 1.6
2017-Nov-23 21:13N 35°31' E 139°45'0 0.0
2017-Nov-23 20:43N 35°31' E 139°45'0 0.0
2017-Nov-23 20:19N 35°31' E 139°45'0 0.0
2017-Nov-23 19:13N 35°31' E 139°45'0 0.0
2017-Nov-23 18:43N 35°31' E 139°45'0 0.0
2017-Nov-23 18:13N 35°31' E 139°45'0 0.0
2017-Nov-23 17:55N 35°31' E 139°45'0 0.0
2017-Nov-23 17:25N 35°31' E 139°45'0 0.0
2017-Nov-23 16:25N 35°31' E 139°45'0 0.0
2017-Nov-23 11:43N 35°31' E 139°45'0 0.0
2017-Nov-23 11:25N 35°31' E 139°45'0 0.0
2017-Nov-23 10:55N 35°31' E 139°45'0 0.0
2017-Nov-23 10:07N 35°31' E 139°45'0 0.0
2017-Nov-23 09:43N 35°31' E 139°45'0 0.0
2017-Nov-23 09:25N 35°31' E 139°45'0 0.0
2017-Nov-23 08:55N 35°31' E 139°45'0 0.0
2017-Nov-23 05:49N 35°31' E 139°45'0 0.3
2017-Nov-23 05:30N 35°31' E 139°45'4 7.9
2017-Nov-23 05:00N 35°30' E 139°49'  
2017-Nov-19 20:56N 35°30' E 139°55'511.2
2017-Nov-19 20:30N 35°30' E 139°49'4 7.5
2017-Nov-19 19:59N 35°31' E 139°45'0 0.0
2017-Nov-19 19:29N 35°31' E 139°45'0 0.0
2017-Nov-19 18:59N 35°31' E 139°45'0 0.0
2017-Nov-19 18:29N 35°31' E 139°45'0 0.0
2017-Nov-19 17:59N 35°31' E 139°45'0 0.0
2017-Nov-19 17:29N 35°31' E 139°45'0 0.0
2017-Nov-19 16:59N 35°31' E 139°45'0 0.0
2017-Nov-19 16:29N 35°31' E 139°45'0 0.0
2017-Nov-19 15:59N 35°31' E 139°45'0 0.0
2017-Nov-19 15:23N 35°31' E 139°45'0 0.0
2017-Nov-19 14:59N 35°31' E 139°45'0 0.0
2017-Nov-19 14:29N 35°31' E 139°45'0 0.0
2017-Nov-19 13:59N 35°31' E 139°45'0 0.0
2017-Nov-19 13:29N 35°31' E 139°45'0 0.0
2017-Nov-19 12:59N 35°31' E 139°45'0 0.0
2017-Nov-19 12:29N 35°31' E 139°45'0 0.0
2017-Nov-19 11:50N 35°31' E 139°45'0 0.0
2017-Nov-19 11:29N 35°31' E 139°45'0 0.0
2017-Nov-19 10:53N 35°31' E 139°45'0 0.0
2017-Nov-19 10:29N 35°31' E 139°45'0 0.0
2017-Nov-19 09:56N 35°31' E 139°45'0 0.0
2017-Nov-19 09:29N 35°31' E 139°45'0 0.0
2017-Nov-19 08:50N 35°31' E 139°45'0 0.0
2017-Nov-19 08:23N 35°31' E 139°45'0 0.0
2017-Nov-19 07:47N 35°31' E 139°45'0 0.0
2017-Nov-19 07:29N 35°31' E 139°45'0 0.0
2017-Nov-19 06:59N 35°31' E 139°45'0 0.0
2017-Nov-19 06:23N 35°31' E 139°45'0 0.0
2017-Nov-19 05:59N 35°31' E 139°45'0 0.0
2017-Nov-19 05:29N 35°31' E 139°45'0 0.0
2017-Nov-19 04:59N 35°31' E 139°45'0 0.0
2017-Nov-19 04:23N 35°31' E 139°45'0 0.0
2017-Nov-19 03:56N 35°31' E 139°45'0 0.0
2017-Nov-19 03:23N 35°31' E 139°45'0 0.4
2017-Nov-19 03:00N 35°31' E 139°45'5 9.9
2017-Nov-19 02:30N 35°31' E 139°51'2 0.3
2017-Nov-18 21:08N 35°31' E 139°53'2 8.4
2017-Nov-18 20:51N 35°31' E 139°50'0 0.0
2017-Nov-18 04:00N 35°30' E 139°50'612.5
2017-Nov-18 03:29N 35°27' E 139°44'2 3.9
2017-Nov-18 03:00N 35°27' E 139°41'0 0.0
2017-Nov-18 02:21N 35°27' E 139°41'0 0.0
2017-Nov-18 01:51N 35°27' E 139°41'0 0.0
2017-Nov-18 01:24N 35°27' E 139°41'0 0.0
2017-Nov-18 00:15N 35°27' E 139°41'0 0.0
2017-Nov-17 23:45N 35°27' E 139°41'0 0.0
2017-Nov-17 23:30N 35°27' E 139°41'0 0.0
2017-Nov-17 22:54N 35°27' E 139°41'3 6.7
2017-Nov-17 22:27N 35°28' E 139°45'4 0.2
2017-Nov-16 21:02N 35°30' E 139°49'210.6
2017-Nov-16 20:49N 35°30' E 139°46'4 0.2
2017-Nov-15 22:25N 35°30' E 139°50'4 0.3
2017-Nov-15 06:39N 35°30' E 139°45'  

Dump ship's entire track history